Time,TemperatureF,DewpointF,PressureIn,WindDirection,WindDirectionDegrees,WindSpeedMPH,WindSpeedGustMPH,Humidity,HourlyPrecipIn,Conditions,Clouds,dailyrainin,SoftwareType,DateUTC
2013-04-10 00:01:00,61.9,26.6,29.93,North,1,1.0,4.0,26,0.00,,,0.00,Wunderground v.1.15,2013-04-10 07:01:00,
2013-04-10 00:07:00,61.8,25.6,29.92,WNW,300,3.0,7.0,25,0.00,,,0.00,Wunderground v.1.15,2013-04-10 07:07:00,
2013-04-10 00:12:00,61.7,26.4,29.92,NE,36,11.0,11.0,26,0.00,,,0.00,Wunderground v.1.15,2013-04-10 07:12:00,
2013-04-10 00:18:00,62.0,26.7,29.92,North,360,11.0,11.0,26,0.00,,,0.00,Wunderground v.1.15,2013-04-10 07:18:00,
2013-04-10 00:23:00,62.9,25.5,29.92,NNE,26,9.0,10.0,24,0.00,,,0.00,Wunderground v.1.15,2013-04-10 07:23:00,
2013-04-10 00:28:00,63.3,25.9,29.92,North,10,14.0,14.0,24,0.00,,,0.00,Wunderground v.1.15,2013-04-10 07:28:00,
2013-04-10 00:34:00,64.2,25.6,29.93,NNW,346,17.0,19.0,23,0.00,,,0.00,Wunderground v.1.15,2013-04-10 07:34:00,
2013-04-10 00:40:00,64.6,25.9,29.92,NW,325,14.0,14.0,23,0.00,,,0.00,Wunderground v.1.15,2013-04-10 07:40:00,
2013-04-10 00:45:00,64.5,25.8,29.93,North,6,8.0,18.0,23,0.00,,,0.00,Wunderground v.1.15,2013-04-10 07:45:00,
2013-04-10 00:51:00,64.4,26.8,29.93,NW,312,15.0,17.0,24,0.00,,,0.00,Wunderground v.1.15,2013-04-10 07:51:00,
2013-04-10 00:57:00,64.1,26.5,29.93,NNE,32,13.0,18.0,24,0.00,,,0.00,Wunderground v.1.15,2013-04-10 07:57:00,
2013-04-10 01:02:00,63.7,26.2,29.94,NNE,12,17.0,19.0,24,0.00,,,0.00,Wunderground v.1.15,2013-04-10 08:02:00,
2013-04-10 01:08:00,63.8,27.3,29.94,North,8,15.0,19.0,25,0.00,,,0.00,Wunderground v.1.15,2013-04-10 08:08:00,
2013-04-10 01:13:00,63.2,27.7,29.94,NW,316,11.0,16.0,26,0.00,,,0.00,Wunderground v.1.15,2013-04-10 08:13:00,
2013-04-10 01:18:00,62.8,27.4,29.95,NNW,339,10.0,16.0,26,0.00,,,0.00,Wunderground v.1.15,2013-04-10 08:18:00,
2013-04-10 01:23:00,62.7,27.3,29.95,NNW,338,9.0,12.0,26,0.00,,,0.00,Wunderground v.1.15,2013-04-10 08:23:00,
2013-04-10 01:29:00,62.3,26.0,29.95,NNW,347,2.0,12.0,25,0.00,,,0.00,Wunderground v.1.15,2013-04-10 08:29:00,
2013-04-10 01:34:00,62.2,25.9,29.95,ENE,67,3.0,8.0,25,0.00,,,0.00,Wunderground v.1.15,2013-04-10 08:34:00,
2013-04-10 01:39:00,61.8,26.5,29.95,NNE,15,3.0,8.0,26,0.00,,,0.00,Wunderground v.1.15,2013-04-10 08:39:00,
2013-04-10 01:45:00,61.6,24.4,29.95,NE,37,1.0,5.0,24,0.00,,,0.00,Wunderground v.1.15,2013-04-10 08:45:00,
2013-04-10 01:51:00,61.5,26.3,29.95,NNE,30,2.0,5.0,26,0.00,,,0.00,Wunderground v.1.15,2013-04-10 08:51:00,
2013-04-10 01:56:00,61.0,24.9,29.95,NNW,345,0.0,5.0,25,0.00,,,0.00,Wunderground v.1.15,2013-04-10 08:56:00,
2013-04-10 02:01:00,60.6,26.4,29.96,North,358,4.0,4.0,27,0.00,,,0.00,Wunderground v.1.15,2013-04-10 09:01:00,
2013-04-10 02:06:00,59.7,25.6,29.96,NNW,332,2.0,4.0,27,0.00,,,0.00,Wunderground v.1.15,2013-04-10 09:06:00,
2013-04-10 02:11:00,60.0,26.8,29.96,North,4,3.0,4.0,28,0.00,,,0.00,Wunderground v.1.15,2013-04-10 09:11:00,
2013-04-10 02:16:00,59.9,26.7,29.96,NW,320,3.0,5.0,28,0.00,,,0.00,Wunderground v.1.15,2013-04-10 09:16:00,
2013-04-10 02:21:00,59.6,27.3,29.96,NNW,330,0.0,2.0,29,0.00,,,0.00,Wunderground v.1.15,2013-04-10 09:21:00,
2013-04-10 02:26:00,59.1,26.0,29.96,WNW,285,1.0,3.0,28,0.00,,,0.00,Wunderground v.1.15,2013-04-10 09:26:00,
2013-04-10 02:31:00,59.5,25.5,29.96,NW,323,6.0,7.0,27,0.00,,,0.00,Wunderground v.1.15,2013-04-10 09:31:00,
2013-04-10 02:36:00,59.6,26.4,29.96,NW,324,4.0,7.0,28,0.00,,,0.00,Wunderground v.1.15,2013-04-10 09:36:00,
2013-04-10 02:41:00,59.5,26.3,29.96,NW,326,5.0,9.0,28,0.00,,,0.00,Wunderground v.1.15,2013-04-10 09:41:00,
2013-04-10 02:46:00,60.1,26.9,29.96,NNW,333,9.0,12.0,28,0.00,,,0.00,Wunderground v.1.15,2013-04-10 09:46:00,
2013-04-10 02:52:00,60.3,26.1,29.96,NW,326,12.0,12.0,27,0.00,,,0.00,Wunderground v.1.15,2013-04-10 09:52:00,
2013-04-10 02:57:00,60.1,24.1,29.96,NW,319,13.0,16.0,25,0.00,,,0.00,Wunderground v.1.15,2013-04-10 09:57:00,
2013-04-10 03:02:00,60.9,24.8,29.96,NNW,344,14.0,20.0,25,0.00,,,0.00,Wunderground v.1.15,2013-04-10 10:02:00,
2013-04-10 03:07:00,61.1,24.0,29.96,North,5,14.0,20.0,24,0.00,,,0.00,Wunderground v.1.15,2013-04-10 10:07:00,
2013-04-10 03:12:00,61.2,24.1,29.96,North,357,15.0,19.0,24,0.00,,,0.00,Wunderground v.1.15,2013-04-10 10:12:00,
2013-04-10 03:17:00,61.1,24.0,29.96,NNE,26,20.0,20.0,24,0.00,,,0.00,Wunderground v.1.15,2013-04-10 10:17:00,
2013-04-10 03:22:00,61.1,24.0,29.96,NNW,338,15.0,16.0,24,0.00,,,0.00,Wunderground v.1.15,2013-04-10 10:22:00,
2013-04-10 03:27:00,60.9,24.8,29.95,NNW,339,17.0,24.0,25,0.00,,,0.00,Wunderground v.1.15,2013-04-10 10:27:00,
2013-04-10 03:32:00,61.0,23.9,29.95,NW,325,16.0,27.0,24,0.00,,,0.00,Wunderground v.1.15,2013-04-10 10:32:00,
2013-04-10 03:37:00,60.9,23.8,29.95,NW,316,23.0,28.0,24,0.00,,,0.00,Wunderground v.1.15,2013-04-10 10:37:00,
2013-04-10 03:42:00,61.4,23.2,29.96,North,357,32.0,35.0,23,0.00,,,0.00,Wunderground v.1.15,2013-04-10 10:42:00,
2013-04-10 03:47:00,61.2,23.1,29.96,NNE,30,20.0,35.0,23,0.00,,,0.00,Wunderground v.1.15,2013-04-10 10:47:00,
2013-04-10 03:52:00,61.2,24.1,29.96,NNW,330,23.0,29.0,24,0.00,,,0.00,Wunderground v.1.15,2013-04-10 10:52:00,
2013-04-10 03:57:00,61.3,24.2,29.96,NNW,342,20.0,29.0,24,0.00,,,0.00,Wunderground v.1.15,2013-04-10 10:57:00,
2013-04-10 04:02:00,61.0,23.9,29.97,NNW,337,26.0,30.0,24,0.00,,,0.00,Wunderground v.1.15,2013-04-10 11:02:00,
2013-04-10 04:07:00,61.0,23.9,29.97,NW,304,19.0,33.0,24,0.00,,,0.00,Wunderground v.1.15,2013-04-10 11:07:00,
2013-04-10 04:12:00,60.9,24.8,29.97,North,352,18.0,35.0,25,0.00,,,0.00,Wunderground v.1.15,2013-04-10 11:12:00,
2013-04-10 04:17:00,60.7,24.6,29.97,NE,53,19.0,37.0,25,0.00,,,0.00,Wunderground v.1.15,2013-04-10 11:17:00,
2013-04-10 04:22:00,60.5,24.5,29.97,NNW,337,18.0,27.0,25,0.00,,,0.00,Wunderground v.1.15,2013-04-10 11:22:00,
2013-04-10 04:28:00,60.3,25.2,29.97,NE,41,14.0,31.0,26,0.00,,,0.00,Wunderground v.1.15,2013-04-10 11:28:00,
2013-04-10 04:33:00,60.0,25.0,29.96,North,358,24.0,29.0,26,0.00,,,0.00,Wunderground v.1.15,2013-04-10 11:33:00,
2013-04-10 04:38:00,59.9,24.9,29.95,NNE,23,19.0,31.0,26,0.00,,,0.00,Wunderground v.1.15,2013-04-10 11:38:00,
2013-04-10 04:43:00,59.6,24.6,29.96,NW,323,18.0,24.0,26,0.00,,,0.00,Wunderground v.1.15,2013-04-10 11:43:00,
2013-04-10 04:48:00,59.5,25.5,29.96,NNE,19,18.0,29.0,27,0.00,,,0.00,Wunderground v.1.15,2013-04-10 11:48:00,
2013-04-10 04:53:00,59.3,25.3,29.97,NNE,12,16.0,27.0,27,0.00,,,0.00,Wunderground v.1.15,2013-04-10 11:53:00,
2013-04-10 04:58:00,59.1,26.0,29.98,WNW,292,16.0,27.0,28,0.00,,,0.00,Wunderground v.1.15,2013-04-10 11:58:00,
2013-04-10 05:03:00,58.9,25.8,29.98,NW,326,6.0,17.0,28,0.00,,,0.00,Wunderground v.1.15,2013-04-10 12:03:00,
2013-04-10 05:08:00,58.7,25.6,29.98,NNW,343,14.0,17.0,28,0.00,,,0.00,Wunderground v.1.15,2013-04-10 12:08:00,
2013-04-10 05:13:00,58.5,25.5,29.98,NNW,333,11.0,13.0,28,0.00,,,0.00,Wunderground v.1.15,2013-04-10 12:13:00,
2013-04-10 05:18:00,58.3,26.1,29.98,NNW,336,10.0,15.0,29,0.00,,,0.00,Wunderground v.1.15,2013-04-10 12:18:00,
2013-04-10 05:23:00,58.4,25.4,29.98,NNE,27,15.0,19.0,28,0.00,,,0.00,Wunderground v.1.15,2013-04-10 12:23:00,
2013-04-10 05:28:00,58.7,25.6,29.98,NNW,327,11.0,24.0,28,0.00,,,0.00,Wunderground v.1.15,2013-04-10 12:28:00,
2013-04-10 05:33:00,58.6,25.6,29.98,NNE,19,18.0,22.0,28,0.00,,,0.00,Wunderground v.1.15,2013-04-10 12:33:00,
2013-04-10 05:38:00,58.3,26.1,29.98,NNW,328,14.0,22.0,29,0.00,,,0.00,Wunderground v.1.15,2013-04-10 12:38:00,
2013-04-10 05:43:00,58.0,25.9,29.98,NNW,336,11.0,17.0,29,0.00,,,0.00,Wunderground v.1.15,2013-04-10 12:43:00,
2013-04-10 05:48:00,58.0,25.9,29.99,WNW,287,11.0,17.0,29,0.00,,,0.00,Wunderground v.1.15,2013-04-10 12:48:00,
2013-04-10 05:53:00,57.7,25.6,29.99,North,355,7.0,12.0,29,0.00,,,0.00,Wunderground v.1.15,2013-04-10 12:53:00,
2013-04-10 05:58:00,57.6,24.7,29.99,NNE,17,6.0,12.0,28,0.00,,,0.00,Wunderground v.1.15,2013-04-10 12:58:00,
2013-04-10 06:03:00,57.6,23.8,29.99,North,352,2.0,9.0,27,0.00,,,0.00,Wunderground v.1.15,2013-04-10 13:03:00,
2013-04-10 06:08:00,57.6,25.5,29.99,NNW,334,4.0,10.0,29,0.00,,,0.00,Wunderground v.1.15,2013-04-10 13:08:00,
2013-04-10 06:13:00,57.3,26.1,29.99,North,354,9.0,12.0,30,0.00,,,0.00,Wunderground v.1.15,2013-04-10 13:13:00,
2013-04-10 06:18:00,57.1,25.9,30.00,NNW,336,5.0,14.0,30,0.00,,,0.00,Wunderground v.1.15,2013-04-10 13:18:00,
2013-04-10 06:23:00,56.9,25.7,30.00,NNE,13,11.0,20.0,30,0.00,,,0.00,Wunderground v.1.15,2013-04-10 13:23:00,
2013-04-10 06:28:00,57.0,25.8,30.01,ENE,60,5.0,20.0,30,0.00,,,0.00,Wunderground v.1.15,2013-04-10 13:28:00,
2013-04-10 06:33:00,57.1,25.9,30.01,NNE,18,3.0,13.0,30,0.00,,,0.00,Wunderground v.1.15,2013-04-10 13:33:00,
2013-04-10 06:38:00,57.4,25.4,30.02,NNW,346,1.0,13.0,29,0.00,,,0.00,Wunderground v.1.15,2013-04-10 13:38:00,
2013-04-10 06:43:00,57.7,24.8,30.03,NNE,13,4.0,8.0,28,0.00,,,0.00,Wunderground v.1.15,2013-04-10 13:43:00,
2013-04-10 06:48:00,57.9,25.0,30.03,NNE,23,1.0,8.0,28,0.00,,,0.00,Wunderground v.1.15,2013-04-10 13:48:00,
2013-04-10 06:53:00,57.9,25.8,30.03,NNE,25,3.0,7.0,29,0.00,,,0.00,Wunderground v.1.15,2013-04-10 13:53:00,
2013-04-10 06:58:00,57.8,25.7,30.03,NNE,23,1.0,7.0,29,0.00,,,0.00,Wunderground v.1.15,2013-04-10 13:58:00,
2013-04-10 07:03:00,57.9,25.8,30.03,NNE,17,5.0,8.0,29,0.00,,,0.00,Wunderground v.1.15,2013-04-10 14:03:00,
2013-04-10 07:08:00,57.8,25.7,30.03,NNE,29,1.0,9.0,29,0.00,,,0.00,Wunderground v.1.15,2013-04-10 14:08:00,
2013-04-10 07:13:00,58.0,25.0,30.04,NNE,30,7.0,10.0,28,0.00,,,0.00,Wunderground v.1.15,2013-04-10 14:13:00,
2013-04-10 07:18:00,58.3,26.1,30.04,NNW,345,3.0,10.0,29,0.00,,,0.00,Wunderground v.1.15,2013-04-10 14:18:00,
2013-04-10 07:23:00,58.5,26.3,30.04,NNW,338,4.0,9.0,29,0.00,,,0.00,Wunderground v.1.15,2013-04-10 14:23:00,
2013-04-10 07:28:00,58.7,26.5,30.05,North,354,6.0,10.0,29,0.00,,,0.00,Wunderground v.1.15,2013-04-10 14:28:00,
2013-04-10 07:33:00,58.9,26.7,30.05,NE,36,5.0,7.0,29,0.00,,,0.00,Wunderground v.1.15,2013-04-10 14:33:00,
2013-04-10 07:38:00,59.3,27.0,30.05,North,353,2.0,8.0,29,0.00,,,0.00,Wunderground v.1.15,2013-04-10 14:38:00,
2013-04-10 07:43:00,59.6,27.3,30.05,NNE,12,5.0,7.0,29,0.00,,,0.00,Wunderground v.1.15,2013-04-10 14:43:00,
2013-04-10 07:48:00,60.1,27.7,30.05,NW,312,5.0,11.0,29,0.00,,,0.00,Wunderground v.1.15,2013-04-10 14:48:00,
2013-04-10 07:53:00,60.4,27.1,30.06,North,354,4.0,10.0,28,0.00,,,0.00,Wunderground v.1.15,2013-04-10 14:53:00,
2013-04-10 07:58:00,60.7,27.4,30.06,North,355,5.0,10.0,28,0.00,,,0.00,Wunderground v.1.15,2013-04-10 14:58:00,
2013-04-10 08:03:00,61.0,26.7,30.06,North,360,7.0,14.0,27,0.00,,,0.00,Wunderground v.1.15,2013-04-10 15:03:00,
2013-04-10 08:08:00,61.4,27.1,30.06,North,11,8.0,14.0,27,0.00,,,0.00,Wunderground v.1.15,2013-04-10 15:08:00,
2013-04-10 08:13:00,62.0,25.7,30.06,NNW,330,3.0,7.0,25,0.00,,,0.00,Wunderground v.1.15,2013-04-10 15:13:00,
2013-04-10 08:18:00,62.4,27.9,30.06,North,4,9.0,11.0,27,0.00,,,0.00,Wunderground v.1.15,2013-04-10 15:18:00,
2013-04-10 08:23:00,62.6,29.0,30.06,NNW,346,9.0,13.0,28,0.00,,,0.00,Wunderground v.1.15,2013-04-10 15:23:00,
2013-04-10 08:28:00,63.0,28.5,30.06,North,356,9.0,13.0,27,0.00,,,0.00,Wunderground v.1.15,2013-04-10 15:28:00,
2013-04-10 08:33:00,63.2,28.6,30.06,NNW,330,10.0,17.0,27,0.00,,,0.00,Wunderground v.1.15,2013-04-10 15:33:00,
2013-04-10 08:38:00,63.0,28.5,30.06,WNW,297,7.0,17.0,27,0.00,,,0.00,Wunderground v.1.15,2013-04-10 15:38:00,
2013-04-10 08:43:00,63.4,27.9,30.06,North,356,3.0,12.0,26,0.00,,,0.00,Wunderground v.1.15,2013-04-10 15:43:00,
2013-04-10 08:48:00,64.1,27.5,30.06,NE,45,5.0,12.0,25,0.00,,,0.00,Wunderground v.1.15,2013-04-10 15:48:00,
2013-04-10 08:53:00,64.3,27.7,30.06,NNW,340,15.0,21.0,25,0.00,,,0.00,Wunderground v.1.15,2013-04-10 15:53:00,
2013-04-10 08:58:00,64.5,28.8,30.06,NE,41,8.0,21.0,26,0.00,,,0.00,Wunderground v.1.15,2013-04-10 15:58:00,
2013-04-10 09:04:00,65.0,29.2,30.06,NNW,327,14.0,14.0,26,0.00,,,0.00,Wunderground v.1.15,2013-04-10 16:04:00,
2013-04-10 09:09:00,65.2,27.5,30.06,NNW,334,13.0,22.0,24,0.00,,,0.00,Wunderground v.1.15,2013-04-10 16:09:00,
2013-04-10 09:14:00,65.4,27.6,30.07,NNE,25,11.0,18.0,24,0.00,,,0.00,Wunderground v.1.15,2013-04-10 16:14:00,
2013-04-10 09:19:00,65.6,27.8,30.07,North,359,8.0,19.0,24,0.00,,,0.00,Wunderground v.1.15,2013-04-10 16:19:00,
2013-04-10 09:24:00,65.9,25.9,30.07,North,6,15.0,17.0,22,0.00,,,0.00,Wunderground v.1.15,2013-04-10 16:24:00,
2013-04-10 09:28:00,66.1,26.1,30.07,North,3,6.0,18.0,22,0.00,,,0.00,Wunderground v.1.15,2013-04-10 16:28:00,
2013-04-10 09:34:00,66.2,28.3,30.07,North,353,18.0,21.0,24,0.00,,,0.00,Wunderground v.1.15,2013-04-10 16:34:00,
2013-04-10 09:38:00,66.5,26.4,30.07,NNW,341,11.0,22.0,22,0.00,,,0.00,Wunderground v.1.15,2013-04-10 16:38:00,
2013-04-10 09:44:00,66.8,24.4,30.07,North,9,15.0,17.0,20,0.00,,,0.00,Wunderground v.1.15,2013-04-10 16:44:00,
2013-04-10 09:49:00,66.9,26.8,30.07,NW,325,16.0,22.0,22,0.00,,,0.00,Wunderground v.1.15,2013-04-10 16:49:00,
2013-04-10 09:54:00,67.1,24.6,30.07,NNE,24,4.0,24.0,20,0.00,,,0.00,Wunderground v.1.15,2013-04-10 16:54:00,
2013-04-10 09:59:00,67.9,25.3,30.07,NNW,341,2.0,24.0,20,0.00,,,0.00,Wunderground v.1.15,2013-04-10 16:59:00,
2013-04-10 10:04:00,68.2,24.3,30.07,ENE,66,5.0,19.0,19,0.00,,,0.00,Wunderground v.1.15,2013-04-10 17:04:00,
2013-04-10 10:09:00,68.6,24.7,30.06,NNW,332,8.0,21.0,19,0.00,,,0.00,Wunderground v.1.15,2013-04-10 17:09:00,
2013-04-10 10:14:00,69.0,23.7,30.06,North,9,2.0,17.0,18,0.00,,,0.00,Wunderground v.1.15,2013-04-10 17:14:00,
2013-04-10 10:19:00,69.7,25.6,30.06,North,6,9.0,17.0,19,0.00,,,0.00,Wunderground v.1.15,2013-04-10 17:19:00,
2013-04-10 10:24:00,69.9,25.7,30.06,ENE,76,6.0,17.0,19,0.00,,,0.00,Wunderground v.1.15,2013-04-10 17:24:00,
2013-04-10 10:29:00,70.4,24.8,30.06,ENE,61,6.0,17.0,18,0.00,,,0.00,Wunderground v.1.15,2013-04-10 17:29:00,
2013-04-10 10:34:00,70.2,23.3,30.06,NNW,333,9.0,24.0,17,0.00,,,0.00,Wunderground v.1.15,2013-04-10 17:34:00,
2013-04-10 10:39:00,70.2,21.9,30.06,North,353,5.0,24.0,16,0.00,,,0.00,Wunderground v.1.15,2013-04-10 17:39:00,
2013-04-10 10:44:00,70.4,23.5,30.05,NE,51,14.0,14.0,17,0.00,,,0.00,Wunderground v.1.15,2013-04-10 17:44:00,
2013-04-10 10:49:00,70.6,23.6,30.06,ENE,60,12.0,14.0,17,0.00,,,0.00,Wunderground v.1.15,2013-04-10 17:49:00,
2013-04-10 10:54:00,70.5,23.5,30.06,ESE,121,11.0,19.0,17,0.00,,,0.00,Wunderground v.1.15,2013-04-10 17:54:00,
2013-04-10 10:59:00,70.5,22.1,30.05,NNE,30,11.0,21.0,16,0.00,,,0.00,Wunderground v.1.15,2013-04-10 17:59:00,
2013-04-10 11:04:00,70.9,22.4,30.05,NE,39,13.0,19.0,16,0.00,,,0.00,Wunderground v.1.15,2013-04-10 18:04:00,
2013-04-10 11:09:00,70.7,26.4,30.05,NE,46,15.0,23.0,19,0.00,,,0.00,Wunderground v.1.15,2013-04-10 18:09:00,
2013-04-10 11:14:00,70.7,25.1,30.05,ESE,121,14.0,22.0,18,0.00,,,0.00,Wunderground v.1.15,2013-04-10 18:14:00,
2013-04-10 11:19:00,71.1,22.6,30.05,NE,35,8.0,22.0,16,0.00,,,0.00,Wunderground v.1.15,2013-04-10 18:19:00,
2013-04-10 11:24:00,71.5,22.9,30.05,WNW,302,3.0,18.0,16,0.00,,,0.00,Wunderground v.1.15,2013-04-10 18:24:00,
2013-04-10 11:29:00,71.6,24.4,30.05,North,5,10.0,20.0,17,0.00,,,0.00,Wunderground v.1.15,2013-04-10 18:29:00,
2013-04-10 11:34:00,71.6,21.5,30.04,North,3,22.0,22.0,15,0.00,,,0.00,Wunderground v.1.15,2013-04-10 18:34:00,
2013-04-10 11:39:00,71.3,25.6,30.04,NNW,338,17.0,25.0,18,0.00,,,0.00,Wunderground v.1.15,2013-04-10 18:39:00,
2013-04-10 11:44:00,71.7,23.1,30.04,ESE,115,5.0,17.0,16,0.00,,,0.00,Wunderground v.1.15,2013-04-10 18:44:00,
2013-04-10 11:49:00,72.0,20.1,30.03,NNW,332,3.0,17.0,14,0.00,,,0.00,Wunderground v.1.15,2013-04-10 18:49:00,
2013-04-10 11:54:00,72.7,22.3,30.04,WNW,292,4.0,16.0,15,0.00,,,0.00,Wunderground v.1.15,2013-04-10 18:54:00,
2013-04-10 11:59:00,72.9,22.5,30.03,WNW,302,6.0,16.0,15,0.00,,,0.00,Wunderground v.1.15,2013-04-10 18:59:00,
2013-04-10 12:04:00,73.0,22.6,30.03,North,360,7.0,15.0,15,0.00,,,0.00,Wunderground v.1.15,2013-04-10 19:04:00,
2013-04-10 12:09:00,73.5,24.5,30.03,North,356,9.0,17.0,16,0.00,,,0.00,Wunderground v.1.15,2013-04-10 19:09:00,
2013-04-10 12:14:00,73.9,21.7,30.03,NE,51,13.0,18.0,14,0.00,,,0.00,Wunderground v.1.15,2013-04-10 19:14:00,
2013-04-10 12:19:00,73.7,23.1,30.03,ENE,61,6.0,20.0,15,0.00,,,0.00,Wunderground v.1.15,2013-04-10 19:19:00,
2013-04-10 12:24:00,73.7,21.5,30.02,NNE,14,6.0,18.0,14,0.00,,,0.00,Wunderground v.1.15,2013-04-10 19:24:00,
2013-04-10 12:29:00,73.5,21.3,30.02,NNE,15,16.0,22.0,14,0.00,,,0.00,Wunderground v.1.15,2013-04-10 19:29:00,
2013-04-10 12:34:00,73.5,23.0,30.02,NNE,21,14.0,22.0,15,0.00,,,0.00,Wunderground v.1.15,2013-04-10 19:34:00,
2013-04-10 12:39:00,73.6,26.1,30.02,NNW,340,16.0,22.0,17,0.00,,,0.00,Wunderground v.1.15,2013-04-10 19:39:00,
2013-04-10 12:45:00,73.1,24.2,30.02,WNW,303,11.0,17.0,16,0.00,,,0.00,Wunderground v.1.15,2013-04-10 19:45:00,
2013-04-10 12:50:00,73.6,23.1,30.02,NE,36,7.0,21.0,15,0.00,,,0.00,Wunderground v.1.15,2013-04-10 19:50:00,
2013-04-10 12:54:00,74.0,23.4,30.02,NNW,340,1.0,21.0,15,0.00,,,0.00,Wunderground v.1.15,2013-04-10 19:54:00,
2013-04-10 12:59:00,74.6,23.9,30.01,NNW,335,7.0,21.0,15,0.00,,,0.00,Wunderground v.1.15,2013-04-10 19:59:00,
2013-04-10 13:05:00,74.9,22.5,30.01,SE,143,2.0,19.0,14,0.00,,,0.00,Wunderground v.1.15,2013-04-10 20:05:00,
2013-04-10 13:10:00,75.0,25.7,30.01,WNW,300,8.0,20.0,16,0.00,,,0.00,Wunderground v.1.15,2013-04-10 20:10:00,
2013-04-10 13:15:00,74.8,24.0,30.01,North,355,8.0,20.0,15,0.00,,,0.00,Wunderground v.1.15,2013-04-10 20:15:00,
2013-04-10 13:19:00,75.2,24.3,30.01,NNE,24,3.0,20.0,15,0.00,,,0.00,Wunderground v.1.15,2013-04-10 20:19:00,
2013-04-10 13:24:00,75.2,22.7,30.00,SSW,194,1.0,11.0,14,0.00,,,0.00,Wunderground v.1.15,2013-04-10 20:24:00,
2013-04-10 13:30:00,75.3,24.4,30.00,NW,316,12.0,19.0,15,0.00,,,0.00,Wunderground v.1.15,2013-04-10 20:30:00,
2013-04-10 13:35:00,74.9,24.1,30.00,NNE,19,13.0,17.0,15,0.00,,,0.00,Wunderground v.1.15,2013-04-10 20:35:00,
2013-04-10 13:40:00,75.0,24.2,29.99,WNW,300,2.0,22.0,15,0.00,,,0.00,Wunderground v.1.15,2013-04-10 20:40:00,
2013-04-10 13:45:00,75.8,24.8,30.00,SSE,155,5.0,14.0,15,0.00,,,0.00,Wunderground v.1.15,2013-04-10 20:45:00,
2013-04-10 13:50:00,76.2,25.1,29.99,NW,309,5.0,8.0,15,0.00,,,0.00,Wunderground v.1.15,2013-04-10 20:50:00,
2013-04-10 13:55:00,75.7,24.7,29.99,NNW,342,17.0,20.0,15,0.00,,,0.00,Wunderground v.1.15,2013-04-10 20:55:00,
2013-04-10 14:00:00,75.7,23.1,29.99,NNW,331,9.0,13.0,14,0.00,,,0.00,Wunderground v.1.15,2013-04-10 21:00:00,
2013-04-10 14:05:00,75.0,22.5,29.98,WNW,302,12.0,21.0,14,0.00,,,0.00,Wunderground v.1.15,2013-04-10 21:05:00,
2013-04-10 14:10:00,75.2,24.3,29.98,NW,316,2.0,13.0,15,0.00,,,0.00,Wunderground v.1.15,2013-04-10 21:10:00,
2013-04-10 14:15:00,76.0,25.0,29.98,NNW,335,14.0,18.0,15,0.00,,,0.00,Wunderground v.1.15,2013-04-10 21:15:00,
2013-04-10 14:20:00,76.3,23.6,29.98,NNE,21,1.0,8.0,14,0.00,,,0.00,Wunderground v.1.15,2013-04-10 21:20:00,
2013-04-10 14:25:00,76.5,23.7,29.98,NW,318,11.0,20.0,14,0.00,,,0.00,Wunderground v.1.15,2013-04-10 21:25:00,
2013-04-10 14:30:00,76.8,24.0,29.97,ENE,78,12.0,21.0,14,0.00,,,0.00,Wunderground v.1.15,2013-04-10 21:30:00,
2013-04-10 14:35:00,76.2,19.8,29.97,North,8,10.0,22.0,12,0.00,,,0.00,Wunderground v.1.15,2013-04-10 21:35:00,
2013-04-10 14:40:00,76.7,22.1,29.96,NNE,21,18.0,18.0,13,0.00,,,0.00,Wunderground v.1.15,2013-04-10 21:40:00,
2013-04-10 14:45:00,77.5,22.7,29.96,NNE,20,6.0,19.0,13,0.00,,,0.00,Wunderground v.1.15,2013-04-10 21:45:00,
2013-04-10 14:50:00,77.1,22.4,29.96,North,353,9.0,12.0,13,0.00,,,0.00,Wunderground v.1.15,2013-04-10 21:50:00,
2013-04-10 14:55:00,77.3,22.6,29.96,NW,314,3.0,20.0,13,0.00,,,0.00,Wunderground v.1.15,2013-04-10 21:55:00,
2013-04-10 15:00:00,78.0,21.2,29.96,NNE,27,15.0,15.0,12,0.00,,,0.00,Wunderground v.1.15,2013-04-10 22:00:00,
2013-04-10 15:05:00,78.3,21.5,29.96,NNW,338,2.0,19.0,12,0.00,,,0.00,Wunderground v.1.15,2013-04-10 22:05:00,
2013-04-10 15:10:00,78.0,23.1,29.95,NNE,26,2.0,6.0,13,0.00,,,0.00,Wunderground v.1.15,2013-04-10 22:10:00,
2013-04-10 15:15:00,78.2,23.3,29.95,NE,49,3.0,14.0,13,0.00,,,0.00,Wunderground v.1.15,2013-04-10 22:15:00,
2013-04-10 15:20:00,78.7,23.7,29.95,WNW,301,13.0,22.0,13,0.00,,,0.00,Wunderground v.1.15,2013-04-10 22:20:00,
2013-04-10 15:25:00,77.8,23.0,29.94,South,183,4.0,22.0,13,0.00,,,0.00,Wunderground v.1.15,2013-04-10 22:25:00,
2013-04-10 15:30:00,78.0,21.2,29.94,ENE,60,9.0,14.0,12,0.00,,,0.00,Wunderground v.1.15,2013-04-10 22:30:00,
2013-04-10 15:35:00,78.4,19.5,29.94,North,353,6.0,14.0,11,0.00,,,0.00,Wunderground v.1.15,2013-04-10 22:35:00,
2013-04-10 15:40:00,78.6,23.6,29.94,NE,54,8.0,8.0,13,0.00,,,0.00,Wunderground v.1.15,2013-04-10 22:40:00,
2013-04-10 15:46:00,78.3,19.4,29.93,NW,314,9.0,20.0,11,0.00,,,0.00,Wunderground v.1.15,2013-04-10 22:46:00,
2013-04-10 15:51:00,78.5,19.6,29.93,NE,37,11.0,11.0,11,0.00,,,0.00,Wunderground v.1.15,2013-04-10 22:51:00,
2013-04-10 15:56:00,78.4,23.5,29.93,NNE,16,11.0,20.0,13,0.00,,,0.00,Wunderground v.1.15,2013-04-10 22:56:00,
2013-04-10 16:01:00,78.5,19.6,29.93,NNW,332,9.0,15.0,11,0.00,,,0.00,Wunderground v.1.15,2013-04-10 23:01:00,
2013-04-10 16:06:00,79.2,17.9,29.92,NNW,328,0.0,17.0,10,0.00,,,0.00,Wunderground v.1.15,2013-04-10 23:06:00,
2013-04-10 16:11:00,79.4,20.3,29.92,North,353,7.0,13.0,11,0.00,,,0.00,Wunderground v.1.15,2013-04-10 23:11:00,
2013-04-10 16:16:00,79.4,18.0,29.92,NNE,13,11.0,13.0,10,0.00,,,0.00,Wunderground v.1.15,2013-04-10 23:16:00,
2013-04-10 16:21:00,79.4,18.0,29.92,NE,41,4.0,8.0,10,0.00,,,0.00,Wunderground v.1.15,2013-04-10 23:21:00,
2013-04-10 16:26:00,79.5,18.1,29.92,ENE,68,5.0,12.0,10,0.00,,,0.00,Wunderground v.1.15,2013-04-10 23:26:00,
2013-04-10 16:31:00,79.6,18.2,29.92,NE,49,7.0,13.0,10,0.00,,,0.00,Wunderground v.1.15,2013-04-10 23:31:00,
2013-04-10 16:36:00,79.6,15.8,29.91,NNE,26,8.0,16.0,9,0.00,,,0.00,Wunderground v.1.15,2013-04-10 23:36:00,
2013-04-10 16:41:00,80.1,16.1,29.91,SW,222,3.0,12.0,9,0.00,,,0.00,Wunderground v.1.15,2013-04-10 23:41:00,
2013-04-10 16:46:00,80.4,21.0,29.91,SE,131,0.0,12.0,11,0.00,,,0.00,Wunderground v.1.15,2013-04-10 23:46:00,
2013-04-10 16:51:00,80.0,16.1,29.91,NW,323,3.0,11.0,9,0.00,,,0.00,Wunderground v.1.15,2013-04-10 23:51:00,
2013-04-10 16:56:00,79.8,15.9,29.91,NW,323,5.0,17.0,9,0.00,,,0.00,Wunderground v.1.15,2013-04-10 23:56:00,
2013-04-10 17:01:00,80.0,16.1,29.91,NNE,17,10.0,12.0,9,0.00,,,0.00,Wunderground v.1.15,2013-04-11 00:01:00,
2013-04-10 17:06:00,79.7,15.8,29.91,NE,44,5.0,14.0,9,0.00,,,0.00,Wunderground v.1.15,2013-04-11 00:06:00,
2013-04-10 17:11:00,79.8,15.9,29.90,NNE,13,9.0,10.0,9,0.00,,,0.00,Wunderground v.1.15,2013-04-11 00:11:00,
2013-04-10 17:16:00,80.2,16.2,29.90,NNE,21,8.0,10.0,9,0.00,,,0.00,Wunderground v.1.15,2013-04-11 00:16:00,
2013-04-10 17:21:00,80.1,13.4,29.91,NNW,337,10.0,11.0,8,0.00,,,0.00,Wunderground v.1.15,2013-04-11 00:21:00,
2013-04-10 17:26:00,79.6,15.8,29.90,North,351,2.0,14.0,9,0.00,,,0.00,Wunderground v.1.15,2013-04-11 00:26:00,
2013-04-10 17:32:00,79.7,18.3,29.90,North,349,10.0,10.0,10,0.00,,,0.00,Wunderground v.1.15,2013-04-11 00:32:00,
2013-04-10 17:37:00,79.7,15.8,29.90,NW,311,6.0,16.0,9,0.00,,,0.00,Wunderground v.1.15,2013-04-11 00:37:00,
2013-04-10 17:42:00,79.8,15.9,29.90,NNE,33,5.0,8.0,9,0.00,,,0.00,Wunderground v.1.15,2013-04-11 00:42:00,
2013-04-10 17:47:00,79.4,18.0,29.90,NE,34,6.0,14.0,10,0.00,,,0.00,Wunderground v.1.15,2013-04-11 00:47:00,
2013-04-10 17:52:00,79.3,12.8,29.90,NW,310,11.0,13.0,8,0.00,,,0.00,Wunderground v.1.15,2013-04-11 00:52:00,
2013-04-10 17:57:00,79.2,17.9,29.90,North,352,5.0,13.0,10,0.00,,,0.00,Wunderground v.1.15,2013-04-11 00:57:00,
2013-04-10 18:02:00,78.8,17.6,29.90,NNW,347,7.0,12.0,10,0.00,,,0.00,Wunderground v.1.15,2013-04-11 01:02:00,
2013-04-10 18:07:00,78.5,17.4,29.90,NNE,15,12.0,13.0,10,0.00,,,0.00,Wunderground v.1.15,2013-04-11 01:07:00,
2013-04-10 18:12:00,78.5,14.9,29.90,NNE,19,6.0,13.0,9,0.00,,,0.00,Wunderground v.1.15,2013-04-11 01:12:00,
2013-04-10 18:17:00,78.2,17.1,29.90,SSW,207,3.0,13.0,10,0.00,,,0.00,Wunderground v.1.15,2013-04-11 01:17:00,
2013-04-10 18:22:00,78.1,14.6,29.90,NNW,332,4.0,12.0,9,0.00,,,0.00,Wunderground v.1.15,2013-04-11 01:22:00,
2013-04-10 18:27:00,78.2,14.7,29.90,WNW,300,4.0,12.0,9,0.00,,,0.00,Wunderground v.1.15,2013-04-11 01:27:00,
2013-04-10 18:32:00,78.1,14.6,29.90,NNW,329,5.0,7.0,9,0.00,,,0.00,Wunderground v.1.15,2013-04-11 01:32:00,
2013-04-10 18:37:00,77.9,16.9,29.90,NNE,26,6.0,9.0,10,0.00,,,0.00,Wunderground v.1.15,2013-04-11 01:37:00,
2013-04-10 18:42:00,77.5,16.6,29.90,NE,39,1.0,6.0,10,0.00,,,0.00,Wunderground v.1.15,2013-04-11 01:42:00,
2013-04-10 18:47:00,77.2,16.4,29.90,West,271,0.0,6.0,10,0.00,,,0.00,Wunderground v.1.15,2013-04-11 01:47:00,
2013-04-10 18:52:00,77.1,16.3,29.90,North,8,0.0,3.0,10,0.00,,,0.00,Wunderground v.1.15,2013-04-11 01:52:00,
2013-04-10 18:57:00,76.9,16.1,29.90,NNW,340,0.0,3.0,10,0.00,,,0.00,Wunderground v.1.15,2013-04-11 01:57:00,
2013-04-10 19:02:00,76.2,15.6,29.90,NNW,346,0.0,1.0,10,0.00,,,0.00,Wunderground v.1.15,2013-04-11 02:02:00,
2013-04-10 19:07:00,75.4,15.0,29.90,NNW,340,0.0,1.0,10,0.00,,,0.00,Wunderground v.1.15,2013-04-11 02:07:00,
2013-04-10 19:13:00,74.8,14.5,29.90,ENE,58,0.0,2.0,10,0.00,,,0.00,Wunderground v.1.15,2013-04-11 02:13:00,
2013-04-10 19:18:00,74.4,14.2,29.91,NNW,345,0.0,2.0,10,0.00,,,0.00,Wunderground v.1.15,2013-04-11 02:18:00,
2013-04-10 19:23:00,73.9,13.8,29.91,NNW,340,0.0,0.0,10,0.00,,,0.00,Wunderground v.1.15,2013-04-11 02:23:00,
2013-04-10 19:28:00,73.5,15.7,29.91,NNE,26,0.0,1.0,11,0.00,,,0.00,Wunderground v.1.15,2013-04-11 02:28:00,
2013-04-10 19:32:00,73.0,15.3,29.91,NNE,26,0.0,1.0,11,0.00,,,0.00,Wunderground v.1.15,2013-04-11 02:32:00,
2013-04-10 19:37:00,72.7,15.1,29.91,NNE,25,0.0,1.0,11,0.00,,,0.00,Wunderground v.1.15,2013-04-11 02:37:00,
2013-04-10 19:42:00,72.6,15.0,29.91,North,349,0.0,1.0,11,0.00,,,0.00,Wunderground v.1.15,2013-04-11 02:42:00,
2013-04-10 19:48:00,72.4,16.9,29.91,NE,40,0.0,1.0,12,0.00,,,0.00,Wunderground v.1.15,2013-04-11 02:48:00,
2013-04-10 19:53:00,72.2,16.7,29.92,NNE,19,0.0,1.0,12,0.00,,,0.00,Wunderground v.1.15,2013-04-11 02:53:00,
2013-04-10 19:58:00,71.9,18.3,29.92,NW,322,0.0,1.0,13,0.00,,,0.00,Wunderground v.1.15,2013-04-11 02:58:00,
2013-04-10 20:03:00,71.7,18.2,29.92,NE,46,0.0,1.0,13,0.00,,,0.00,Wunderground v.1.15,2013-04-11 03:03:00,
2013-04-10 20:08:00,71.6,18.1,29.92,ENE,65,1.0,1.0,13,0.00,,,0.00,Wunderground v.1.15,2013-04-11 03:08:00,
2013-04-10 20:13:00,71.6,19.8,29.92,ESE,110,0.0,1.0,14,0.00,,,0.00,Wunderground v.1.15,2013-04-11 03:13:00,
2013-04-10 20:18:00,71.4,17.9,29.92,ENE,72,0.0,2.0,13,0.00,,,0.00,Wunderground v.1.15,2013-04-11 03:18:00,
2013-04-10 20:23:00,71.4,17.9,29.92,ENE,67,0.0,1.0,13,0.00,,,0.00,Wunderground v.1.15,2013-04-11 03:23:00,
2013-04-10 20:28:00,71.2,17.8,29.92,ENE,61,0.0,1.0,13,0.00,,,0.00,Wunderground v.1.15,2013-04-11 03:28:00,
2013-04-10 20:33:00,70.5,17.2,29.92,ENE,61,0.0,0.0,13,0.00,,,0.00,Wunderground v.1.15,2013-04-11 03:33:00,
2013-04-10 20:38:00,70.0,18.6,29.93,ENE,62,0.0,1.0,14,0.00,,,0.00,Wunderground v.1.15,2013-04-11 03:38:00,
2013-04-10 20:43:00,69.8,18.4,29.92,ESE,105,0.0,0.0,14,0.00,,,0.00,Wunderground v.1.15,2013-04-11 03:43:00,
2013-04-10 20:48:00,69.6,18.2,29.92,ESE,121,1.0,1.0,14,0.00,,,0.00,Wunderground v.1.15,2013-04-11 03:48:00,
2013-04-10 20:53:00,68.8,17.6,29.93,SE,124,0.0,1.0,14,0.00,,,0.00,Wunderground v.1.15,2013-04-11 03:53:00,
2013-04-10 20:58:00,67.6,21.2,29.93,WSW,256,4.0,5.0,17,0.00,,,0.00,Wunderground v.1.15,2013-04-11 03:58:00,
2013-04-10 21:00:00,66.5,24.2,29.93,WSW,243,1.0,1.0,20,0.00,,,0.00,Wunderground v.1.15,2013-04-11 04:00:00,
2013-04-10 21:02:00,65.4,23.2,29.93,WSW,252,4.0,4.0,20,0.00,,,0.00,Wunderground v.1.15,2013-04-11 04:02:00,
2013-04-10 21:07:00,64.9,25.1,29.93,SW,233,0.0,5.0,22,0.00,,,0.00,Wunderground v.1.15,2013-04-11 04:07:00,
2013-04-10 21:12:00,64.6,23.7,29.93,SSW,211,0.0,2.0,21,0.00,,,0.00,Wunderground v.1.15,2013-04-11 04:12:00,
2013-04-10 21:17:00,64.4,25.8,29.93,SE,141,0.0,2.0,23,0.00,,,0.00,Wunderground v.1.15,2013-04-11 04:17:00,
2013-04-10 21:22:00,64.6,23.7,29.93,ESE,120,0.0,1.0,21,0.00,,,0.00,Wunderground v.1.15,2013-04-11 04:22:00,
2013-04-10 21:27:00,65.0,22.9,29.93,ESE,120,0.0,1.0,20,0.00,,,0.00,Wunderground v.1.15,2013-04-11 04:27:00,
2013-04-10 21:32:00,65.3,21.9,29.93,ESE,120,0.0,1.0,19,0.00,,,0.00,Wunderground v.1.15,2013-04-11 04:32:00,
2013-04-10 21:37:00,65.7,21.0,29.93,ESE,119,1.0,1.0,18,0.00,,,0.00,Wunderground v.1.15,2013-04-11 04:37:00,
2013-04-10 21:42:00,65.7,19.6,29.93,ESE,114,0.0,1.0,17,0.00,,,0.00,Wunderground v.1.15,2013-04-11 04:42:00,
2013-04-10 21:47:00,65.3,17.9,29.93,ESE,112,2.0,3.0,16,0.00,,,0.00,Wunderground v.1.15,2013-04-11 04:47:00,
2013-04-10 21:52:00,65.4,18.0,29.93,ESE,121,1.0,1.0,16,0.00,,,0.00,Wunderground v.1.15,2013-04-11 04:52:00,
2013-04-10 21:57:00,65.2,17.8,29.93,ESE,118,1.0,1.0,16,0.00,,,0.00,Wunderground v.1.15,2013-04-11 04:57:00,
2013-04-10 22:02:00,65.0,17.7,29.93,SE,129,1.0,2.0,16,0.00,,,0.00,Wunderground v.1.15,2013-04-11 05:02:00,
2013-04-10 22:07:00,64.9,17.6,29.93,ESE,117,3.0,3.0,16,0.00,,,0.00,Wunderground v.1.15,2013-04-11 05:07:00,
2013-04-10 22:13:00,65.2,16.3,29.93,ESE,120,1.0,3.0,15,0.00,,,0.00,Wunderground v.1.15,2013-04-11 05:13:00,
2013-04-10 22:17:00,65.4,16.5,29.93,ESE,114,2.0,3.0,15,0.00,,,0.00,Wunderground v.1.15,2013-04-11 05:17:00,
2013-04-10 22:23:00,65.7,16.7,29.93,ESE,113,2.0,3.0,15,0.00,,,0.00,Wunderground v.1.15,2013-04-11 05:23:00,
2013-04-10 22:28:00,65.3,16.4,29.93,SE,132,2.0,3.0,15,0.00,,,0.00,Wunderground v.1.15,2013-04-11 05:28:00,
2013-04-10 22:33:00,65.1,16.2,29.93,ESE,121,1.0,3.0,15,0.00,,,0.00,Wunderground v.1.15,2013-04-11 05:33:00,
2013-04-10 22:38:00,63.5,21.7,29.93,SW,226,4.0,5.0,20,0.00,,,0.00,Wunderground v.1.15,2013-04-11 05:38:00,
2013-04-10 22:43:00,62.9,25.5,29.93,SW,232,0.0,3.0,24,0.00,,,0.00,Wunderground v.1.15,2013-04-11 05:43:00,
2013-04-10 22:48:00,62.3,26.0,29.93,SW,217,0.0,3.0,25,0.00,,,0.00,Wunderground v.1.15,2013-04-11 05:48:00,
2013-04-10 22:53:00,61.8,27.4,29.93,SW,233,0.0,1.0,27,0.00,,,0.00,Wunderground v.1.15,2013-04-11 05:53:00,
2013-04-10 22:58:00,61.2,25.1,29.93,SW,232,0.0,1.0,25,0.00,,,0.00,Wunderground v.1.15,2013-04-11 05:58:00,
2013-04-10 23:03:00,61.2,24.1,29.93,South,174,0.0,0.0,24,0.00,,,0.00,Wunderground v.1.15,2013-04-11 06:03:00,
2013-04-10 23:08:00,61.5,23.3,29.93,South,174,0.0,0.0,23,0.00,,,0.00,Wunderground v.1.15,2013-04-11 06:08:00,
2013-04-10 23:13:00,61.1,23.0,29.93,WSW,248,1.0,3.0,23,0.00,,,0.00,Wunderground v.1.15,2013-04-11 06:13:00,
2013-04-10 23:18:00,60.1,22.1,29.93,ESE,121,1.0,3.0,23,0.00,,,0.00,Wunderground v.1.15,2013-04-11 06:18:00,
2013-04-10 23:23:00,60.4,20.2,29.93,ESE,113,0.0,1.0,21,0.00,,,0.00,Wunderground v.1.15,2013-04-11 06:23:00,
2013-04-10 23:28:00,60.6,20.4,29.93,ESE,119,0.0,1.0,21,0.00,,,0.00,Wunderground v.1.15,2013-04-11 06:28:00,
2013-04-10 23:33:00,60.9,21.8,29.93,ESE,120,0.0,1.0,22,0.00,,,0.00,Wunderground v.1.15,2013-04-11 06:33:00,
2013-04-10 23:38:00,60.9,22.8,29.93,ESE,120,0.0,1.0,23,0.00,,,0.00,Wunderground v.1.15,2013-04-11 06:38:00,
2013-04-10 23:43:00,60.9,22.8,29.93,ESE,120,0.0,0.0,23,0.00,,,0.00,Wunderground v.1.15,2013-04-11 06:43:00,
2013-04-10 23:48:00,61.0,22.9,29.93,ESE,120,0.0,1.0,23,0.00,,,0.00,Wunderground v.1.15,2013-04-11 06:48:00,
2013-04-10 23:53:00,61.6,22.3,29.92,ESE,122,1.0,1.0,22,0.00,,,0.00,Wunderground v.1.15,2013-04-11 06:53:00,
2013-04-10 23:58:00,61.9,21.5,29.92,ESE,119,1.0,1.0,21,0.00,,,0.00,Wunderground v.1.15,2013-04-11 06:58:00,